timestamp,wind_dir_avg,wind_spd_max_dir,wind_spd_avg,wind_spd_gust,battery_voltage,lat,long
2018-02-22 00:00:00+00:00,227.0,229.0,14.27,17.26,,47.59359,-54.27349
2018-02-22 00:10:00+00:00,230.0,231.0,13.38,16.84,,47.59359,-54.27349
2018-02-22 00:20:00+00:00,231.0,237.0,13.0,14.9,,47.59359,-54.27349
2018-02-22 00:30:00+00:00,231.0,230.0,14.2,17.36,,47.59359,-54.27349
2018-02-22 00:40:00+00:00,230.0,234.0,13.13,15.01,,47.59359,-54.27349
2018-02-22 00:50:00+00:00,229.0,225.0,12.24,14.46,,47.59359,-54.27349
2018-02-22 01:00:00+00:00,231.0,226.0,11.24,13.17,,47.59359,-54.27349
2018-02-22 01:10:00+00:00,232.0,236.0,10.52,11.83,,47.59359,-54.27349
2018-02-22 01:20:00+00:00,241.0,242.0,9.32,11.78,,47.59359,-54.27349
2018-02-22 01:30:00+00:00,238.0,242.0,10.23,11.99,,47.59359,-54.27349
2018-02-22 01:40:00+00:00,238.0,243.0,8.97,10.41,,47.59359,-54.27349
2018-02-22 01:50:00+00:00,246.0,242.0,9.34,11.17,,47.59359,-54.27349
2018-02-22 02:00:00+00:00,249.0,246.0,8.21,9.25,,47.59359,-54.27349
2018-02-22 02:10:00+00:00,271.0,274.0,6.36,7.13,,47.59359,-54.27349
2018-02-22 02:20:00+00:00,257.0,263.0,7.88,9.09,,47.59359,-54.27349
2018-02-22 02:30:00+00:00,260.0,263.0,6.92,7.96,,47.59359,-54.27349
2018-02-22 02:40:00+00:00,252.0,254.0,5.71,6.23,,47.59359,-54.27349
2018-02-22 02:50:00+00:00,255.0,254.0,6.39,7.0,,47.59359,-54.27349
2018-02-22 03:00:00+00:00,247.0,247.0,5.8,6.9,,47.59359,-54.27349
2018-02-22 03:10:00+00:00,257.0,253.0,7.93,8.85,,47.59359,-54.27349
2018-02-22 03:20:00+00:00,257.0,254.0,8.56,9.6,,47.59359,-54.27349
2018-02-22 03:30:00+00:00,267.0,272.0,8.41,10.09,,47.59359,-54.27349
2018-02-22 03:40:00+00:00,277.0,281.0,9.34,10.84,,47.59359,-54.27349
2018-02-22 03:50:00+00:00,276.0,278.0,10.18,11.44,,47.59359,-54.27349
2018-02-22 04:00:00+00:00,278.0,277.0,11.25,13.06,,47.59359,-54.27349
2018-02-22 04:10:00+00:00,276.0,270.0,10.02,11.34,,47.59359,-54.27349
2018-02-22 04:20:00+00:00,261.0,267.0,8.07,8.97,,47.59359,-54.27349
2018-02-22 04:30:00+00:00,257.0,257.0,7.46,9.11,,47.59359,-54.27349
2018-02-22 04:40:00+00:00,247.0,240.0,7.1,8.43,,47.59359,-54.27349
2018-02-22 04:50:00+00:00,250.0,251.0,7.19,7.89,,47.59359,-54.27349
2018-02-22 05:00:00+00:00,264.0,266.0,7.14,8.07,,47.59359,-54.27349
2018-02-22 05:10:00+00:00,284.0,278.0,8.19,9.36,,47.59359,-54.27349
2018-02-22 05:20:00+00:00,291.0,293.0,10.15,12.06,,47.59359,-54.27349
2018-02-22 05:30:00+00:00,289.0,289.0,12.44,19.35,,47.59359,-54.27349
2018-02-22 05:40:00+00:00,287.0,292.0,10.87,12.18,,47.59359,-54.27349
2018-02-22 05:50:00+00:00,288.0,287.0,10.33,11.5,,47.59359,-54.27349
2018-02-22 06:00:00+00:00,292.0,293.0,9.29,10.57,,47.59359,-54.27349
2018-02-22 06:10:00+00:00,296.0,297.0,9.51,11.27,,47.59359,-54.27349
2018-02-22 06:20:00+00:00,293.0,281.0,10.53,12.53,,47.59359,-54.27349
2018-02-22 06:30:00+00:00,283.0,287.0,10.01,11.63,,47.59359,-54.27349
2018-02-22 06:40:00+00:00,295.0,296.0,10.28,12.48,,47.59359,-54.27349
2018-02-22 06:50:00+00:00,300.0,300.0,7.3,8.09,,47.59359,-54.27349
2018-02-22 07:00:00+00:00,311.0,310.0,12.53,14.57,,47.59359,-54.27349
2018-02-22 07:10:00+00:00,318.0,322.0,9.44,11.46,,47.59359,-54.27349
2018-02-22 07:20:00+00:00,311.0,312.0,7.77,10.68,,47.59359,-54.27349
2018-02-22 07:30:00+00:00,300.0,295.0,9.82,12.61,,47.59359,-54.27349
2018-02-22 07:40:00+00:00,310.0,311.0,9.85,11.9,,47.59359,-54.27349
2018-02-22 07:50:00+00:00,305.0,307.0,9.74,10.74,,47.59359,-54.27349
2018-02-22 08:00:00+00:00,319.0,317.0,13.41,16.95,,47.59359,-54.27349
2018-02-22 08:10:00+00:00,311.0,314.0,6.34,7.44,,47.59359,-54.27349
2018-02-22 08:20:00+00:00,312.0,320.0,6.57,8.8,,47.59359,-54.27349
2018-02-22 08:30:00+00:00,313.0,311.0,6.92,7.89,,47.59359,-54.27349
2018-02-22 08:40:00+00:00,326.0,332.0,11.58,16.15,,47.59359,-54.27349
2018-02-22 08:50:00+00:00,324.0,323.0,9.38,13.17,,47.59359,-54.27349
2018-02-22 09:00:00+00:00,331.0,346.0,10.22,13.99,,47.59359,-54.27349
2018-02-22 09:10:00+00:00,331.0,334.0,9.22,11.66,,47.59359,-54.27349
2018-02-22 09:20:00+00:00,352.0,358.0,14.82,17.35,,47.59359,-54.27349
2018-02-22 09:30:00+00:00,348.0,344.0,14.12,16.55,,47.59359,-54.27349
2018-02-22 09:40:00+00:00,348.0,3.0,16.28,21.03,,47.59359,-54.27349
2018-02-22 09:50:00+00:00,339.0,344.0,13.46,16.89,,47.59359,-54.27349
2018-02-22 10:00:00+00:00,333.0,332.0,13.82,16.61,,47.59359,-54.27349
2018-02-22 10:10:00+00:00,342.0,343.0,12.81,15.52,,47.59359,-54.27349
2018-02-22 10:20:00+00:00,352.0,352.0,17.88,21.6,,47.59359,-54.27349
2018-02-22 10:30:00+00:00,345.0,345.0,18.36,23.77,,47.59359,-54.27349
2018-02-22 10:40:00+00:00,340.0,340.0,15.84,18.74,,47.59359,-54.27349
2018-02-22 10:50:00+00:00,341.0,339.0,16.6,18.6,,47.59359,-54.27349
2018-02-22 11:00:00+00:00,345.0,349.0,14.11,16.12,,47.59359,-54.27349
2018-02-22 11:10:00+00:00,337.0,333.0,13.83,15.74,,47.59359,-54.27349
2018-02-22 11:20:00+00:00,334.0,331.0,14.24,18.06,,47.59359,-54.27349
2018-02-22 11:30:00+00:00,347.0,346.0,15.91,18.46,,47.59359,-54.27349
2018-02-22 11:40:00+00:00,345.0,341.0,14.4,17.21,,47.59359,-54.27349
2018-02-22 11:50:00+00:00,351.0,353.0,13.26,16.79,,47.59359,-54.27349
2018-02-22 12:00:00+00:00,343.0,339.0,12.36,14.91,,47.59359,-54.27349
2018-02-22 12:10:00+00:00,352.0,349.0,11.71,15.44,,47.59359,-54.27349
2018-02-22 12:20:00+00:00,343.0,337.0,9.44,11.38,,47.59359,-54.27349
2018-02-22 12:30:00+00:00,5.0,6.0,11.63,15.13,,47.59359,-54.27349
2018-02-22 12:40:00+00:00,1.0,7.0,14.66,19.11,,47.59359,-54.27349
2018-02-22 12:50:00+00:00,359.0,3.0,17.39,19.85,,47.59359,-54.27349
2018-02-22 13:00:00+00:00,344.0,345.0,18.02,21.04,,47.59359,-54.27349
2018-02-22 13:10:00+00:00,348.0,351.0,20.48,23.79,,47.59359,-54.27349
2018-02-22 13:20:00+00:00,1.0,2.0,15.87,18.63,,47.59359,-54.27349
2018-02-22 13:30:00+00:00,0.0,352.0,11.73,15.39,,47.59359,-54.27349
2018-02-22 13:40:00+00:00,6.0,5.0,14.48,16.92,,47.59359,-54.27349
2018-02-22 13:50:00+00:00,358.0,343.0,12.84,15.33,,47.59359,-54.27349
2018-02-22 14:00:00+00:00,3.0,356.0,14.01,15.81,,47.59359,-54.27349
2018-02-22 14:10:00+00:00,1.0,358.0,15.5,18.14,,47.59359,-54.27349
2018-02-22 14:20:00+00:00,357.0,355.0,13.41,15.92,,47.59359,-54.27349
2018-02-22 14:30:00+00:00,3.0,9.0,11.37,13.01,,47.59359,-54.27349
2018-02-22 14:40:00+00:00,16.0,34.0,11.79,16.29,,47.59359,-54.27349
2018-02-22 14:50:00+00:00,17.0,25.0,14.04,16.68,,47.59359,-54.27349
2018-02-22 15:00:00+00:00,4.0,0.0,12.66,14.54,,47.59359,-54.27349
2018-02-22 15:10:00+00:00,7.0,6.0,12.06,14.43,,47.59359,-54.27349
2018-02-22 15:20:00+00:00,5.0,1.0,11.24,13.44,,47.59359,-54.27349
2018-02-22 15:30:00+00:00,1.0,359.0,10.72,12.08,,47.59359,-54.27349
2018-02-22 15:40:00+00:00,5.0,7.0,11.5,14.68,,47.59359,-54.27349
2018-02-22 15:50:00+00:00,355.0,349.0,13.25,15.53,,47.59359,-54.27349
2018-02-22 16:00:00+00:00,357.0,355.0,12.13,14.93,,47.59359,-54.27349
2018-02-22 16:10:00+00:00,0.0,9.0,12.77,14.69,,47.59359,-54.27349
2018-02-22 16:20:00+00:00,3.0,359.0,14.35,16.68,,47.59359,-54.27349
2018-02-22 16:30:00+00:00,356.0,345.0,11.4,14.25,,47.59359,-54.27349
2018-02-22 16:40:00+00:00,358.0,3.0,12.43,14.56,,47.59359,-54.27349
2018-02-22 16:50:00+00:00,6.0,12.0,12.13,13.72,,47.59359,-54.27349
2018-02-22 17:00:00+00:00,4.0,3.0,12.1,13.75,,47.59359,-54.27349
2018-02-22 17:10:00+00:00,3.0,7.0,9.28,12.98,,47.59359,-54.27349
2018-02-22 17:20:00+00:00,2.0,13.0,10.34,12.19,,47.59359,-54.27349
2018-02-22 17:30:00+00:00,5.0,5.0,10.67,12.41,,47.59359,-54.27349
2018-02-22 17:40:00+00:00,7.0,1.0,6.66,7.61,,47.59359,-54.27349
2018-02-22 17:50:00+00:00,353.0,325.0,8.65,10.33,,47.59359,-54.27349
2018-02-22 18:00:00+00:00,349.0,349.0,9.56,10.85,,47.59359,-54.27349
2018-02-22 18:10:00+00:00,357.0,330.0,6.34,8.65,,47.59359,-54.27349
2018-02-22 18:20:00+00:00,358.0,335.0,8.1,9.74,,47.59359,-54.27349
2018-02-22 18:30:00+00:00,358.0,359.0,6.57,9.7,,47.59359,-54.27349
2018-02-22 18:40:00+00:00,356.0,9.0,7.8,9.26,,47.59359,-54.27349
2018-02-22 18:50:00+00:00,359.0,358.0,8.99,9.98,,47.59359,-54.27349
2018-02-22 19:00:00+00:00,357.0,2.0,8.0,9.02,,47.59359,-54.27349
2018-02-22 19:10:00+00:00,338.0,332.0,9.06,10.91,,47.59359,-54.27349
2018-02-22 19:20:00+00:00,340.0,336.0,8.94,11.92,,47.59359,-54.27349
2018-02-22 19:30:00+00:00,344.0,342.0,10.2,11.76,,47.59359,-54.27349
2018-02-22 19:40:00+00:00,337.0,327.0,8.26,9.73,,47.59359,-54.27349
2018-02-22 19:50:00+00:00,354.0,341.0,8.6,9.81,,47.59359,-54.27349
2018-02-22 20:00:00+00:00,330.0,332.0,8.57,10.1,,47.59359,-54.27349
2018-02-22 20:10:00+00:00,336.0,327.0,8.33,9.6,,47.59359,-54.27349
2018-02-22 20:20:00+00:00,329.0,335.0,7.54,10.76,,47.59359,-54.27349
2018-02-22 20:30:00+00:00,330.0,329.0,8.67,10.04,,47.59359,-54.27349
2018-02-22 20:40:00+00:00,334.0,333.0,10.47,11.66,,47.59359,-54.27349
2018-02-22 20:50:00+00:00,321.0,320.0,9.58,10.76,,47.59359,-54.27349
2018-02-22 21:00:00+00:00,327.0,317.0,8.33,10.48,,47.59359,-54.27349
2018-02-22 21:10:00+00:00,342.0,350.0,7.15,8.78,,47.59359,-54.27349
2018-02-22 21:20:00+00:00,335.0,331.0,6.68,8.44,,47.59359,-54.27349
2018-02-22 21:30:00+00:00,329.0,325.0,8.08,9.76,,47.59359,-54.27349
2018-02-22 21:40:00+00:00,340.0,330.0,5.63,6.86,,47.59359,-54.27349
2018-02-22 21:50:00+00:00,345.0,354.0,6.16,8.3,,47.59359,-54.27349
2018-02-22 22:00:00+00:00,349.0,326.0,7.34,9.39,,47.59359,-54.27349
2018-02-22 22:10:00+00:00,316.0,314.0,5.06,6.93,,47.59359,-54.27349
2018-02-22 22:20:00+00:00,331.0,328.0,7.45,9.65,,47.59359,-54.27349
2018-02-22 22:30:00+00:00,311.0,311.0,8.36,9.69,,47.59359,-54.27349
2018-02-22 22:40:00+00:00,320.0,325.0,6.88,8.14,,47.59359,-54.27349
2018-02-22 22:50:00+00:00,313.0,303.0,7.26,8.43,,47.59359,-54.27349
2018-02-22 23:00:00+00:00,321.0,321.0,7.66,8.87,,47.59359,-54.27349
2018-02-22 23:10:00+00:00,304.0,299.0,6.59,8.27,,47.59359,-54.27349
2018-02-22 23:20:00+00:00,316.0,317.0,6.54,7.45,,47.59359,-54.27349
2018-02-22 23:30:00+00:00,309.0,308.0,6.63,8.02,,47.59359,-54.27349
2018-02-22 23:40:00+00:00,304.0,304.0,6.6,8.4,,47.59359,-54.27349
2018-02-22 23:50:00+00:00,309.0,305.0,6.41,7.38,,47.59359,-54.27349
